THORAD AGENA D DEB, 4842

Orbit data source: Space-Track

THORAD AGENA D DEB, 4842 is space debris in SSO originally from a launch on Wed, 08 Apr 1970 UTC launched from the Air Force Western Test Range (AFWTR). Debris objects in space refer to the collection of defunct objects orbiting the Earth. Examples of debris include non-operational satellites, rocket bodies, and fragments generated from explosions, collisions, or faulty payload assembly.

Loading next visibility...
Identifier
4842, 1970-025EE
Orbit
SSO
Country
Flag of USUS
Related business
Manufacturer
Unknown
Mission
Spacecraft
Bus & Motor
Unknown
Mass
Unknown
Launch date (UTC)
1970-04-08 (56 years ago)
Launch vehicle
Unknown
Launch site
Air Force Western Test Range (AFWTR)
Object type
Payload
Rocket body
Debris
Shape & HBR
Unknown shape, 0.1 m
Radar Cross Section
Medium (>0.1 m² and <1 m²)

Expand to show TLE details & history
Last TLE update: 10 hours ago

TLE from 10 hours ago
0 THORAD AGENA D DEB
1  4842U 70025EE  26126.94058392  .00002366  00000-0  13628-2 0  9998
2  4842  99.9462 128.2691 0016889  24.7046 335.4927 14.10248651817093
Epoch: 2026-05-06T22:34Z
TLE epoch observation values (Epoch: 2026-05-06T22:34:26.450Z)
Latitude
0.00003°
Longitude
-75.13498°
Altitude
850.26 km
Speed
7.433 km/s
True Right ascension
08h 33m 04s
True Declination
0° 00' 00"
Sunlit
Object was in daylight at epoch
Visualization orbit readout
Latitude
Unknown
Longitude
Unknown
Altitude
Unknown
Speed
Unknown
Apparent Right ascension
Unknown
Apparent Declination
Unknown
Sunlit
N/A
Visualization observer readout
Local Sidereal Time
16:20:06
Azimuth
Unknown
Elevation
Unknown
Doppler factor
Unknown
Orbital elements
Apogee altitude
867.973 km
Perigee altitude
843.538 km
Semi-major axis
7,233.893 km
Eccentricity
0.00169
Inclination
99.9462°
RAAN
128.2691°
Arg. of periapsis
24.7046°
True anomaly
335.41227°
Mean anomaly
335.4927°
Eccentric anomaly
335.4525°
Mean motion
3.52765 °/min
Orbital period
102.05 mins
BSTAR
0.0013628
Loading maneuver chart data...
Computing Atmospheric mass density...

Documentation

Showing up to 5 results
|